| time (UTC) | temp F | wind direction | speed MPH | gust MPH | rain 1hr in | rain 24hr in | rain mn in | humidity % | barometer mb |
| 20260509090002 | 54 | 259 | 5.0 | 12.0 | 0.00 | 0.00 | 0.00 | 68 | 1021.0 |
| 20260509085501 | 54 | 191 | 5.0 | 12.0 | 0.00 | 0.00 | 0.00 | 68 | 1021.1 |
| 20260509085004 | 53 | 273 | 4.0 | 10.0 | 0.00 | 0.00 | 0.00 | 68 | 1021.2 |
| 20260509084502 | 54 | 271 | 3.0 | 10.0 | 0.00 | 0.00 | 0.00 | 68 | 1021.2 |
| 20260509084100 | 54 | 257 | 5.0 | 10.0 | 0.00 | 0.00 | 0.00 | 67 | 1021.3 |
| 20260509083559 | 54 | 191 | 2.0 | 12.0 | 0.00 | 0.00 | 0.00 | 66 | 1021.4 |
| 20260509083059 | 54 | 262 | 5.0 | 12.0 | 0.00 | 0.00 | 0.00 | 66 | 1021.4 |
| 20260509082559 | 54 | 191 | 2.0 | 11.0 | 0.00 | 0.00 | 0.00 | 65 | 1021.4 |
| 20260509082057 | 54 | 256 | 6.0 | 11.0 | 0.00 | 0.00 | 0.00 | 67 | 1021.4 |
| 20260509081559 | 54 | 240 | 6.0 | 10.0 | 0.00 | 0.00 | 0.00 | 68 | 1021.4 |
| 20260509081056 | 53 | 237 | 7.0 | 14.0 | 0.00 | 0.00 | 0.00 | 68 | 1021.4 |
| 20260509080556 | 54 | 230 | 8.0 | 13.0 | 0.00 | 0.00 | 0.00 | 68 | 1021.4 |
| 20260509080100 | 54 | 203 | 7.0 | 13.0 | 0.00 | 0.00 | 0.00 | 68 | 1021.4 |
| 20260509075555 | 53 | 239 | 9.0 | 12.0 | 0.00 | 0.00 | 0.00 | 68 | 1021.4 |
| 20260509075055 | 53 | 213 | 8.0 | 13.0 | 0.00 | 0.00 | 0.00 | 68 | 1021.4 |
| 20260509074553 | 54 | 217 | 7.0 | 13.0 | 0.00 | 0.00 | 0.00 | 68 | 1021.4 |
| 20260509074051 | 54 | 168 | 3.0 | 6.0 | 0.00 | 0.00 | 0.00 | 67 | 1021.5 |
| 20260509073551 | 53 | 155 | 1.0 | 5.0 | 0.00 | 0.00 | 0.00 | 66 | 1021.6 |
| 20260509073051 | 53 | 335 | 0.0 | 3.0 | 0.00 | 0.00 | 0.00 | 66 | 1021.5 |
| 20260509072551 | 53 | 335 | 0.0 | 3.0 | 0.00 | 0.00 | 0.00 | 65 | 1021.5 |
| 20260509072050 | 53 | 335 | 0.0 | 2.0 | 0.00 | 0.00 | 0.00 | 65 | 1021.6 |
| 20260509071551 | 53 | 300 | 0.0 | 2.0 | 0.00 | 0.00 | 0.00 | 65 | 1021.6 |
| 20260509071048 | 54 | 300 | 0.0 | 4.0 | 0.00 | 0.00 | 0.00 | 64 | 1021.6 |
| 20260509070549 | 54 | 196 | 0.0 | 8.0 | 0.00 | 0.00 | 0.00 | 65 | 1021.7 |
| 20260509070051 | 53 | 273 | 1.0 | 8.0 | 0.00 | 0.00 | 0.00 | 65 | 1021.7 |
| 20260509065546 | 53 | 337 | 0.0 | 3.0 | 0.00 | 0.00 | 0.00 | 65 | 1021.8 |
| 20260509065046 | 53 | 331 | 0.0 | 3.0 | 0.00 | 0.00 | 0.00 | 66 | 1021.9 |
| 20260509064556 | 53 | 311 | 0.0 | 3.0 | 0.00 | 0.00 | 0.00 | 65 | 1021.9 |
| 20260509064046 | 53 | 299 | 0.0 | 3.0 | 0.00 | 0.00 | 0.00 | 64 | 1022.0 |
| 20260509063546 | 54 | 248 | 0.0 | 2.0 | 0.00 | 0.00 | 0.00 | 64 | 1022.0 |
| 20260509063046 | 54 | 224 | 0.0 | 1.0 | 0.00 | 0.00 | 0.00 | 63 | 1022.0 |
| 20260509062550 | 55 | 224 | 0.0 | 1.0 | 0.00 | 0.00 | 0.00 | 62 | 1022.0 |
| 20260509062045 | 55 | 224 | 0.0 | 1.0 | 0.00 | 0.00 | 0.00 | 61 | 1022.0 |
| 20260509061556 | 55 | 224 | 0.0 | 2.0 | 0.00 | 0.00 | 0.00 | 61 | 1022.0 |
| 20260509061044 | 55 | 224 | 0.0 | 2.0 | 0.00 | 0.00 | 0.00 | 60 | 1021.9 |
| 20260509060543 | 56 | 224 | 0.0 | 2.0 | 0.00 | 0.00 | 0.00 | 59 | 1021.9 |
| 20260509060044 | 56 | 224 | 0.0 | 2.0 | 0.00 | 0.00 | 0.00 | 58 | 1021.9 |
| 20260509055543 | 56 | 224 | 0.0 | 3.0 | 0.00 | 0.00 | 0.00 | 57 | 1021.8 |
| 20260509055042 | 57 | 224 | 0.0 | 3.0 | 0.00 | 0.00 | 0.00 | 57 | 1021.8 |
| 20260509054547 | 58 | 238 | 0.0 | 3.0 | 0.00 | 0.00 | 0.00 | 54 | 1021.7 |
| 20260509054041 | 57 | 245 | 0.0 | 5.0 | 0.00 | 0.00 | 0.00 | 55 | 1021.7 |
| 20260509053541 | 58 | 245 | 0.0 | 5.0 | 0.00 | 0.00 | 0.00 | 54 | 1021.7 |
| 20260509053040 | 58 | 259 | 0.0 | 3.0 | 0.00 | 0.00 | 0.00 | 53 | 1021.6 |
| 20260509052540 | 58 | 1 | 0.0 | 7.0 | 0.00 | 0.00 | 0.00 | 54 | 1021.6 |
| 20260509052039 | 58 | 350 | 0.0 | 7.0 | 0.00 | 0.00 | 0.00 | 53 | 1021.5 |
| 20260509051539 | 58 | 328 | 1.0 | 5.0 | 0.00 | 0.00 | 0.00 | 53 | 1021.5 |
| 20260509051040 | 59 | 350 | 1.0 | 5.0 | 0.00 | 0.00 | 0.00 | 52 | 1021.4 |
| 20260509050540 | 59 | 2 | 0.0 | 5.0 | 0.00 | 0.00 | 0.00 | 52 | 1021.3 |
| 20260509050037 | 59 | 354 | 0.0 | 5.0 | 0.00 | 0.00 | 0.00 | 52 | 1021.3 |
| 20260509045537 | 59 | 352 | 1.0 | 6.0 | 0.00 | 0.00 | 0.00 | 51 | 1021.3 |
| 20260509045038 | 59 | 350 | 1.0 | 10.0 | 0.00 | 0.00 | 0.00 | 51 | 1021.4 |
| 20260509044537 | 59 | 335 | 2.0 | 10.0 | 0.00 | 0.00 | 0.00 | 51 | 1021.3 |
| 20260509044037 | 59 | 343 | 1.0 | 9.0 | 0.00 | 0.00 | 0.00 | 50 | 1021.3 |
| 20260509043540 | 60 | 2 | 2.0 | 13.0 | 0.00 | 0.00 | 0.00 | 50 | 1021.3 |
| 20260509043036 | 59 | 339 | 2.0 | 7.0 | 0.00 | 0.00 | 0.00 | 51 | 1021.3 |
| 20260509042536 | 59 | 321 | 3.0 | 9.0 | 0.00 | 0.00 | 0.00 | 50 | 1021.3 |
| 20260509042036 | 60 | 360 | 2.0 | 6.0 | 0.00 | 0.00 | 0.00 | 50 | 1021.2 |
| 20260509041535 | 60 | 338 | 2.0 | 9.0 | 0.00 | 0.00 | 0.00 | 50 | 1021.2 |
| 20260509041034 | 60 | 191 | 2.0 | 9.0 | 0.00 | 0.00 | 0.00 | 50 | 1021.1 |
| 20260509040534 | 59 | 347 | 3.0 | 6.0 | 0.00 | 0.00 | 0.00 | 50 | 1021.1 |
| 20260509040040 | 59 | 360 | 1.0 | 8.0 | 0.00 | 0.00 | 0.00 | 50 | 1021.0 |
| 20260509035534 | 60 | 280 | 1.0 | 8.0 | 0.00 | 0.00 | 0.00 | 50 | 1021.0 |
| 20260509035032 | 59 | 27 | 1.0 | 5.0 | 0.00 | 0.00 | 0.00 | 51 | 1020.9 |
| 20260509034535 | 59 | 340 | 0.0 | 8.0 | 0.00 | 0.00 | 0.00 | 50 | 1020.8 |
| 20260509034030 | 60 | 359 | 2.0 | 8.0 | 0.00 | 0.00 | 0.00 | 49 | 1020.7 |
| 20260509033531 | 60 | 17 | 1.0 | 7.0 | 0.00 | 0.00 | 0.00 | 49 | 1020.6 |
| 20260509033030 | 60 | 358 | 1.0 | 10.0 | 0.00 | 0.00 | 0.00 | 48 | 1020.6 |
| 20260509032530 | 60 | 350 | 2.0 | 8.0 | 0.00 | 0.00 | 0.00 | 48 | 1020.5 |
| 20260509032029 | 60 | 337 | 0.0 | 8.0 | 0.00 | 0.00 | 0.00 | 48 | 1020.5 |
| 20260509031530 | 60 | 353 | 2.0 | 8.0 | 0.00 | 0.00 | 0.00 | 49 | 1020.5 |
| 20260509031028 | 60 | 357 | 0.0 | 9.0 | 0.00 | 0.00 | 0.00 | 49 | 1020.4 |
| 20260509030528 | 61 | 349 | 3.0 | 9.0 | 0.00 | 0.00 | 0.00 | 47 | 1020.3 |
| 20260509030027 | 61 | 346 | 1.0 | 11.0 | 0.00 | 0.00 | 0.00 | 47 | 1020.3 |
| 20260509025527 | 61 | 191 | 1.0 | 11.0 | 0.00 | 0.00 | 0.00 | 46 | 1020.2 |
| 20260509025026 | 61 | 265 | 0.0 | 11.0 | 0.00 | 0.00 | 0.00 | 46 | 1020.1 |
| 20260509024526 | 61 | 191 | 2.0 | 8.0 | 0.00 | 0.00 | 0.00 | 46 | 1020.1 |
| 20260509024029 | 61 | 16 | 1.0 | 11.0 | 0.00 | 0.00 | 0.00 | 47 | 1020.0 |
| 20260509023527 | 61 | 191 | 1.0 | 7.0 | 0.00 | 0.00 | 0.00 | 46 | 1020.0 |
| 20260509023026 | 61 | 273 | 1.0 | 10.0 | 0.00 | 0.00 | 0.00 | 45 | 1019.9 |
| 20260509022527 | 61 | 246 | 2.0 | 10.0 | 0.00 | 0.00 | 0.00 | 47 | 1019.8 |
| 20260509022024 | 62 | 325 | 3.0 | 13.0 | 0.00 | 0.00 | 0.00 | 45 | 1019.8 |
| 20260509021524 | 62 | 277 | 5.0 | 13.0 | 0.00 | 0.00 | 0.00 | 46 | 1019.8 |
| 20260509021023 | 62 | 224 | 5.0 | 11.0 | 0.00 | 0.00 | 0.00 | 45 | 1019.8 |
| 20260509020524 | 62 | 251 | 1.0 | 18.0 | 0.00 | 0.00 | 0.00 | 46 | 1019.8 |
| 20260509020023 | 62 | 191 | 5.0 | 18.0 | 0.00 | 0.00 | 0.00 | 45 | 1019.8 |
| 20260509015523 | 62 | 242 | 6.0 | 14.0 | 0.00 | 0.00 | 0.00 | 45 | 1019.7 |
| 20260509015023 | 62 | 258 | 4.0 | 14.0 | 0.00 | 0.00 | 0.00 | 45 | 1019.7 |
| 20260509014535 | 62 | 267 | 5.0 | 12.0 | 0.00 | 0.00 | 0.00 | 43 | 1019.7 |
| 20260509014022 | 62 | 262 | 5.0 | 17.0 | 0.00 | 0.00 | 0.00 | 45 | 1019.6 |
| 20260509013522 | 62 | 256 | 8.0 | 17.0 | 0.00 | 0.00 | 0.00 | 45 | 1019.7 |
| 20260509013023 | 63 | 316 | 5.0 | 15.0 | 0.00 | 0.00 | 0.00 | 44 | 1019.6 |
| 20260509012521 | 63 | 250 | 5.0 | 14.0 | 0.00 | 0.00 | 0.00 | 42 | 1019.7 |
| 20260509012021 | 63 | 191 | 6.0 | 13.0 | 0.00 | 0.00 | 0.00 | 43 | 1019.6 |
| 20260509011520 | 63 | 191 | 7.0 | 15.0 | 0.00 | 0.00 | 0.00 | 43 | 1019.6 |
| 20260509011020 | 63 | 191 | 8.0 | 19.0 | 0.00 | 0.00 | 0.00 | 42 | 1019.5 |
| 20260509010520 | 63 | 244 | 8.0 | 18.0 | 0.00 | 0.00 | 0.00 | 43 | 1019.5 |
| 20260509010020 | 63 | 243 | 6.0 | 18.0 | 0.00 | 0.00 | 0.00 | 42 | 1019.5 |
| 20260509005519 | 63 | 261 | 7.0 | 19.0 | 0.00 | 0.00 | 0.00 | 41 | 1019.4 |
| 20260509005019 | 63 | 280 | 11.0 | 19.0 | 0.00 | 0.00 | 0.00 | 43 | 1019.4 |
| 20260509004519 | 63 | 269 | 10.0 | 21.0 | 0.00 | 0.00 | 0.00 | 41 | 1019.4 |
| 20260509004019 | 64 | 242 | 6.0 | 17.0 | 0.00 | 0.00 | 0.00 | 41 | 1019.4 |
| 20260509003520 | 64 | 244 | 12.0 | 19.0 | 0.00 | 0.00 | 0.00 | 41 | 1019.3 |
| 20260509003020 | 64 | 191 | 9.0 | 23.0 | 0.00 | 0.00 | 0.00 | 40 | 1019.3 |
| 20260509002519 | 64 | 262 | 10.0 | 23.0 | 0.00 | 0.00 | 0.00 | 39 | 1019.4 |
| 20260509002019 | 64 | 256 | 9.0 | 21.0 | 0.00 | 0.00 | 0.00 | 39 | 1019.3 |
| 20260509001522 | 64 | 248 | 10.0 | 18.0 | 0.00 | 0.00 | 0.00 | 38 | 1019.3 |
| 20260509001019 | 65 | 255 | 7.0 | 18.0 | 0.00 | 0.00 | 0.00 | 38 | 1019.2 |
| 20260509000520 | 65 | 191 | 8.0 | 18.0 | 0.00 | 0.00 | 0.00 | 37 | 1019.2 |
| 20260509000018 | 65 | 264 | 9.0 | 22.0 | 0.00 | 0.00 | 0.00 | 37 | 1019.1 |
| 20260508235518 | 66 | 302 | 7.0 | 22.0 | 0.00 | 0.00 | 0.00 | 36 | 1019.2 |
| 20260508235019 | 65 | 239 | 8.0 | 21.0 | 0.00 | 0.00 | 0.00 | 36 | 1019.2 |
| 20260508234518 | 65 | 269 | 8.0 | 22.0 | 0.00 | 0.00 | 0.00 | 35 | 1019.3 |
| 20260508234018 | 66 | 237 | 9.0 | 22.0 | 0.00 | 0.00 | 0.00 | 34 | 1019.1 |
| 20260508233519 | 66 | 251 | 8.0 | 22.0 | 0.00 | 0.00 | 0.00 | 34 | 1019.3 |
| 20260508233018 | 66 | 265 | 7.0 | 19.0 | 0.00 | 0.00 | 0.00 | 33 | 1019.3 |
| 20260508232517 | 66 | 273 | 8.0 | 19.0 | 0.00 | 0.00 | 0.00 | 33 | 1019.2 |
| 20260508232017 | 66 | 266 | 7.0 | 22.0 | 0.00 | 0.00 | 0.00 | 32 | 1019.1 |
| 20260508231517 | 67 | 262 | 8.0 | 22.0 | 0.00 | 0.00 | 0.00 | 32 | 1019.2 |
| 20260508231017 | 67 | 217 | 7.0 | 17.0 | 0.00 | 0.00 | 0.00 | 32 | 1019.1 |
| 20260508230516 | 67 | 191 | 9.0 | 16.0 | 0.00 | 0.00 | 0.00 | 34 | 1019.2 |
| 20260508230017 | 67 | 191 | 7.0 | 19.0 | 0.00 | 0.00 | 0.00 | 34 | 1019.1 |
| 20260508225517 | 67 | 234 | 8.0 | 16.0 | 0.00 | 0.00 | 0.00 | 31 | 1019.1 |
| 20260508225019 | 67 | 273 | 9.0 | 18.0 | 0.00 | 0.00 | 0.00 | 33 | 1019.2 |
| 20260508224517 | 67 | 241 | 9.0 | 24.0 | 0.00 | 0.00 | 0.00 | 33 | 1019.2 |
| 20260508224016 | 67 | 258 | 7.0 | 24.0 | 0.00 | 0.00 | 0.00 | 33 | 1019.2 |
| 20260508223516 | 67 | 260 | 8.0 | 17.0 | 0.00 | 0.00 | 0.00 | 34 | 1019.2 |
| 20260508223016 | 67 | 239 | 10.0 | 17.0 | 0.00 | 0.00 | 0.00 | 32 | 1019.2 |
| 20260508222516 | 68 | 191 | 5.0 | 14.0 | 0.00 | 0.00 | 0.00 | 31 | 1019.2 |
| 20260508222018 | 68 | 265 | 8.0 | 14.0 | 0.00 | 0.00 | 0.00 | 29 | 1019.2 |
| 20260508221515 | 68 | 246 | 6.0 | 16.0 | 0.00 | 0.00 | 0.00 | 32 | 1019.2 |
| 20260508221015 | 69 | 254 | 3.0 | 14.0 | 0.00 | 0.00 | 0.00 | 30 | 1019.3 |
| 20260508220514 | 69 | 250 | 4.0 | 14.0 | 0.00 | 0.00 | 0.00 | 35 | 1019.2 |
| 20260508220041 | 68 | 191 | 7.0 | 15.0 | 0.00 | 0.00 | 0.00 | 33 | 1019.3 |
| 20260508215513 | 68 | 260 | 8.0 | 16.0 | 0.00 | 0.00 | 0.00 | 36 | 1019.2 |
| 20260508215013 | 67 | 330 | 5.0 | 17.0 | 0.00 | 0.00 | 0.00 | 31 | 1019.2 |
| 20260508214514 | 68 | 273 | 4.0 | 19.0 | 0.00 | 0.00 | 0.00 | 33 | 1019.3 |
| 20260508214012 | 67 | 256 | 5.0 | 19.0 | 0.00 | 0.00 | 0.00 | 34 | 1019.2 |
| 20260508213512 | 68 | 277 | 7.0 | 18.0 | 0.00 | 0.00 | 0.00 | 32 | 1019.2 |
| 20260508213013 | 67 | 260 | 9.0 | 19.0 | 0.00 | 0.00 | 0.00 | 35 | 1019.2 |
| 20260508212513 | 67 | 248 | 12.0 | 19.0 | 0.00 | 0.00 | 0.00 | 35 | 1019.2 |
| 20260508212011 | 67 | 234 | 6.0 | 16.0 | 0.00 | 0.00 | 0.00 | 36 | 1019.2 |
| 20260508211516 | 66 | 238 | 9.0 | 24.0 | 0.00 | 0.00 | 0.00 | 38 | 1019.2 |
| 20260508211012 | 66 | 252 | 11.0 | 24.0 | 0.00 | 0.00 | 0.00 | 37 | 1019.3 |
| 20260508210512 | 68 | 273 | 12.0 | 21.0 | 0.00 | 0.00 | 0.00 | 32 | 1019.3 |
| 20260508210012 | 67 | 191 | 9.0 | 15.0 | 0.00 | 0.00 | 0.00 | 37 | 1019.4 |
| 20260508205512 | 68 | 281 | 8.0 | 21.0 | 0.00 | 0.00 | 0.00 | 35 | 1019.3 |
| 20260508205011 | 67 | 244 | 5.0 | 14.0 | 0.00 | 0.00 | 0.00 | 33 | 1019.3 |
| 20260508204510 | 67 | 260 | 5.0 | 16.0 | 0.00 | 0.00 | 0.00 | 35 | 1019.4 |
| 20260508204014 | 67 | 322 | 6.0 | 16.0 | 0.00 | 0.00 | 0.00 | 31 | 1019.4 |
| 20260508203509 | 67 | 352 | 3.0 | 10.0 | 0.00 | 0.00 | 0.00 | 31 | 1019.3 |
| 20260508203009 | 67 | 191 | 3.0 | 10.0 | 0.00 | 0.00 | 0.00 | 33 | 1019.3 |
| 20260508202509 | 67 | 196 | 2.0 | 14.0 | 0.00 | 0.00 | 0.00 | 39 | 1019.3 |
| 20260508202007 | 67 | 224 | 3.0 | 12.0 | 0.00 | 0.00 | 0.00 | 34 | 1019.3 |
| 20260508201507 | 66 | 243 | 2.0 | 17.0 | 0.00 | 0.00 | 0.00 | 36 | 1019.3 |
| 20260508201006 | 65 | 178 | 7.0 | 17.0 | 0.00 | 0.00 | 0.00 | 34 | 1019.3 |
| 20260508200506 | 67 | 248 | 5.0 | 14.0 | 0.00 | 0.00 | 0.00 | 34 | 1019.3 |
| 20260508200006 | 66 | 265 | 5.0 | 13.0 | 0.00 | 0.00 | 0.00 | 31 | 1019.3 |
| 20260508195505 | 66 | 217 | 2.0 | 14.0 | 0.00 | 0.00 | 0.00 | 35 | 1019.4 |
| 20260508195004 | 65 | 248 | 3.0 | 15.0 | 0.00 | 0.00 | 0.00 | 37 | 1019.4 |
| 20260508194504 | 64 | 258 | 4.0 | 17.0 | 0.00 | 0.00 | 0.00 | 40 | 1019.3 |
| 20260508194002 | 65 | 252 | 4.0 | 24.0 | 0.00 | 0.00 | 0.00 | 38 | 1019.3 |
| 20260508193502 | 64 | 230 | 6.0 | 18.0 | 0.00 | 0.00 | 0.00 | 40 | 1019.3 |
| 20260508193004 | 64 | 191 | 8.0 | 22.0 | 0.00 | 0.00 | 0.00 | 44 | 1019.4 |
| 20260508192502 | 63 | 261 | 7.0 | 22.0 | 0.00 | 0.00 | 0.00 | 46 | 1019.2 |
| 20260508192003 | 63 | 250 | 7.0 | 20.0 | 0.00 | 0.00 | 0.00 | 43 | 1019.2 |
| 20260508191503 | 63 | 253 | 7.0 | 20.0 | 0.00 | 0.00 | 0.00 | 49 | 1019.3 |
| 20260508191002 | 64 | 265 | 8.0 | 15.0 | 0.00 | 0.00 | 0.00 | 50 | 1019.3 |
| 20260508190503 | 64 | 252 | 9.0 | 15.0 | 0.00 | 0.00 | 0.00 | 49 | 1019.4 |
| 20260508190002 | 64 | 191 | 8.0 | 21.0 | 0.00 | 0.00 | 0.00 | 48 | 1019.4 |
| 20260508185600 | 64 | 261 | 11.0 | 21.0 | 0.00 | 0.00 | 0.00 | 45 | 1019.4 |
| 20260508185059 | 63 | 211 | 2.0 | 17.0 | 0.00 | 0.00 | 0.00 | 48 | 1019.5 |
| 20260508184559 | 62 | 250 | 11.0 | 21.0 | 0.00 | 0.00 | 0.00 | 50 | 1019.3 |
| 20260508184057 | 59 | 252 | 11.0 | 21.0 | 0.00 | 0.00 | 0.00 | 56 | 1019.5 |
| 20260508183556 | 58 | 259 | 13.0 | 22.0 | 0.00 | 0.00 | 0.00 | 54 | 1019.5 |
| 20260508183056 | 58 | 264 | 9.0 | 23.0 | 0.00 | 0.00 | 0.00 | 53 | 1019.6 |
| 20260508182556 | 57 | 273 | 11.0 | 23.0 | 0.00 | 0.00 | 0.00 | 55 | 1019.6 |
| 20260508182054 | 57 | 271 | 8.0 | 24.0 | 0.00 | 0.00 | 0.00 | 55 | 1019.6 |
| 20260508181606 | 56 | 218 | 11.0 | 26.0 | 0.00 | 0.00 | 0.00 | 60 | 1019.4 |
| 20260508181053 | 56 | 262 | 13.0 | 26.0 | 0.00 | 0.00 | 0.00 | 59 | 1019.5 |
| 20260508180551 | 55 | 273 | 10.0 | 22.0 | 0.00 | 0.00 | 0.00 | 59 | 1019.4 |
| 20260508180104 | 54 | 239 | 11.0 | 22.0 | 0.00 | 0.00 | 0.00 | 59 | 1019.4 |
| 20260508175551 | 54 | 250 | 9.0 | 21.0 | 0.00 | 0.00 | 0.00 | 59 | 1019.4 |
| 20260508175051 | 54 | 191 | 9.0 | 21.0 | 0.00 | 0.00 | 0.00 | 58 | 1019.4 |
| 20260508174603 | 54 | 191 | 10.0 | 19.0 | 0.00 | 0.00 | 0.00 | 58 | 1019.3 |
| 20260508174053 | 53 | 246 | 9.0 | 26.0 | 0.00 | 0.00 | 0.00 | 59 | 1019.2 |
| 20260508173551 | 53 | 221 | 17.0 | 26.0 | 0.00 | 0.00 | 0.00 | 59 | 1019.3 |
| 20260508173050 | 53 | 280 | 10.0 | 22.0 | 0.00 | 0.00 | 0.00 | 58 | 1019.3 |
| 20260508172549 | 53 | 191 | 7.0 | 19.0 | 0.00 | 0.00 | 0.00 | 60 | 1019.3 |
| 20260508172049 | 53 | 246 | 6.0 | 15.0 | 0.00 | 0.00 | 0.00 | 60 | 1019.1 |
| 20260508171549 | 53 | 248 | 6.0 | 15.0 | 0.00 | 0.00 | 0.00 | 58 | 1019.1 |
| 20260508171052 | 53 | 300 | 8.0 | 16.0 | 0.00 | 0.00 | 0.00 | 58 | 1019.1 |
| 20260508170548 | 53 | 254 | 6.0 | 18.0 | 0.00 | 0.00 | 0.00 | 58 | 1019.0 |
| 20260508170048 | 53 | 12 | 7.0 | 23.0 | 0.00 | 0.00 | 0.00 | 58 | 1018.9 |
| 20260508165547 | 53 | 265 | 8.0 | 23.0 | 0.00 | 0.00 | 0.00 | 59 | 1018.8 |
| 20260508165047 | 53 | 191 | 6.0 | 23.0 | 0.00 | 0.00 | 0.00 | 58 | 1018.9 |
| 20260508164548 | 53 | 235 | 8.0 | 16.0 | 0.00 | 0.00 | 0.00 | 59 | 1018.9 |
| 20260508164047 | 54 | 316 | 9.0 | 17.0 | 0.00 | 0.00 | 0.00 | 59 | 1018.9 |
| 20260508163547 | 54 | 262 | 8.0 | 16.0 | 0.00 | 0.00 | 0.00 | 59 | 1018.9 |
| 20260508163047 | 55 | 191 | 6.0 | 16.0 | 0.00 | 0.00 | 0.00 | 58 | 1018.9 |
| 20260508162547 | 55 | 240 | 4.0 | 16.0 | 0.00 | 0.00 | 0.00 | 57 | 1019.0 |
| 20260508162047 | 55 | 261 | 7.0 | 18.0 | 0.00 | 0.00 | 0.00 | 58 | 1019.0 |
| 20260508161546 | 55 | 227 | 8.0 | 19.0 | 0.00 | 0.00 | 0.00 | 57 | 1019.0 |
| 20260508161046 | 56 | 246 | 10.0 | 16.0 | 0.00 | 0.00 | 0.00 | 59 | 1018.9 |
| 20260508160549 | 56 | 262 | 6.0 | 18.0 | 0.00 | 0.00 | 0.00 | 56 | 1019.0 |
| 20260508160046 | 56 | 191 | 9.0 | 19.0 | 0.00 | 0.00 | 0.00 | 58 | 1019.0 |
| 20260508155545 | 57 | 191 | 8.0 | 16.0 | 0.00 | 0.00 | 0.00 | 55 | 1019.0 |
| 20260508155046 | 58 | 251 | 8.0 | 15.0 | 0.00 | 0.00 | 0.00 | 53 | 1018.9 |
| 20260508154546 | 58 | 191 | 2.0 | 10.0 | 0.00 | 0.00 | 0.00 | 51 | 1019.0 |
| 20260508154044 | 58 | 273 | 4.0 | 10.0 | 0.00 | 0.00 | 0.00 | 53 | 1019.1 |
| 20260508153543 | 57 | 250 | 3.0 | 10.0 | 0.00 | 0.00 | 0.00 | 56 | 1019.1 |
| 20260508153044 | 57 | 248 | 2.0 | 13.0 | 0.00 | 0.00 | 0.00 | 57 | 1019.0 |
| 20260508152542 | 57 | 231 | 7.0 | 17.0 | 0.00 | 0.00 | 0.00 | 58 | 1018.9 |
| 20260508152040 | 57 | 269 | 9.0 | 17.0 | 0.00 | 0.00 | 0.00 | 59 | 1018.9 |
| 20260508151540 | 57 | 261 | 4.0 | 12.0 | 0.00 | 0.00 | 0.00 | 58 | 1018.9 |
| 20260508151040 | 56 | 267 | 2.0 | 17.0 | 0.00 | 0.00 | 0.00 | 60 | 1018.8 |
| 20260508150536 | 55 | 255 | 9.0 | 18.0 | 0.00 | 0.00 | 0.00 | 62 | 1018.7 |
| 20260508150036 | 55 | 269 | 9.0 | 22.0 | 0.00 | 0.00 | 0.00 | 62 | 1018.7 |
| 20260508145536 | 54 | 263 | 5.0 | 22.0 | 0.00 | 0.00 | 0.00 | 62 | 1018.6 |
| 20260508145035 | 54 | 191 | 11.0 | 20.0 | 0.00 | 0.00 | 0.00 | 62 | 1018.5 |
| 20260508144535 | 54 | 262 | 9.0 | 25.0 | 0.00 | 0.00 | 0.00 | 62 | 1018.4 |
| 20260508144032 | 54 | 225 | 11.0 | 25.0 | 0.00 | 0.00 | 0.00 | 62 | 1018.2 |
| 20260508143532 | 54 | 262 | 8.0 | 25.0 | 0.00 | 0.00 | 0.00 | 60 | 1018.2 |
| 20260508143030 | 54 | 254 | 11.0 | 21.0 | 0.00 | 0.00 | 0.00 | 59 | 1018.1 |
| 20260508142533 | 54 | 290 | 8.0 | 19.0 | 0.00 | 0.00 | 0.00 | 57 | 1017.9 |
| 20260508142030 | 54 | 248 | 5.0 | 17.0 | 0.00 | 0.00 | 0.00 | 57 | 1017.9 |
| 20260508141527 | 54 | 237 | 7.0 | 16.0 | 0.00 | 0.00 | 0.00 | 56 | 1017.8 |
| 20260508141025 | 54 | 244 | 6.0 | 18.0 | 0.00 | 0.00 | 0.00 | 57 | 1017.7 |
| 20260508140525 | 54 | 243 | 8.0 | 18.0 | 0.00 | 0.00 | 0.00 | 56 | 1017.7 |
| 20260508140030 | 54 | 260 | 7.0 | 18.0 | 0.00 | 0.00 | 0.00 | 56 | 1017.6 |
| 20260508135524 | 54 | 241 | 5.0 | 18.0 | 0.00 | 0.00 | 0.00 | 54 | 1017.5 |
| 20260508135021 | 54 | 253 | 3.0 | 17.0 | 0.00 | 0.00 | 0.00 | 54 | 1017.5 |
| 20260508134527 | 54 | 257 | 7.0 | 19.0 | 0.00 | 0.00 | 0.00 | 54 | 1017.4 |
| 20260508134019 | 54 | 268 | 6.0 | 19.0 | 0.00 | 0.00 | 0.00 | 55 | 1017.4 |
| 20260508133518 | 54 | 273 | 6.0 | 14.0 | 0.00 | 0.00 | 0.00 | 57 | 1017.4 |
| 20260508133017 | 54 | 351 | 5.0 | 18.0 | 0.00 | 0.00 | 0.00 | 56 | 1017.3 |
| 20260508132520 | 54 | 254 | 4.0 | 19.0 | 0.00 | 0.00 | 0.00 | 58 | 1017.2 |
| 20260508132014 | 54 | 191 | 3.0 | 19.0 | 0.00 | 0.00 | 0.00 | 59 | 1017.2 |
| 20260508131513 | 54 | 317 | 4.0 | 19.0 | 0.00 | 0.00 | 0.00 | 60 | 1017.2 |
| 20260508131012 | 53 | 301 | 6.0 | 14.0 | 0.00 | 0.00 | 0.00 | 60 | 1017.1 |
| 20260508130511 | 53 | 191 | 5.0 | 14.0 | 0.00 | 0.00 | 0.00 | 60 | 1017.0 |
| 20260508130011 | 53 | 191 | 5.0 | 12.0 | 0.00 | 0.00 | 0.00 | 60 | 1016.9 |
| 20260508125511 | 53 | 191 | 3.0 | 13.0 | 0.00 | 0.00 | 0.00 | 59 | 1016.9 |
| 20260508125011 | 53 | 281 | 2.0 | 17.0 | 0.00 | 0.00 | 0.00 | 60 | 1016.9 |
| 20260508124511 | 53 | 191 | 3.0 | 17.0 | 0.00 | 0.00 | 0.00 | 60 | 1016.9 |
| 20260508124010 | 53 | 271 | 4.0 | 11.0 | 0.00 | 0.00 | 0.00 | 60 | 1016.9 |
| 20260508123513 | 53 | 236 | 4.0 | 15.0 | 0.00 | 0.00 | 0.00 | 60 | 1016.8 |
| 20260508123010 | 53 | 264 | 7.0 | 15.0 | 0.00 | 0.00 | 0.00 | 60 | 1016.9 |
| 20260508122513 | 53 | 246 | 5.0 | 15.0 | 0.00 | 0.00 | 0.00 | 61 | 1016.9 |
| 20260508122008 | 53 | 251 | 5.0 | 14.0 | 0.00 | 0.00 | 0.00 | 61 | 1016.8 |
| 20260508121509 | 53 | 241 | 6.0 | 16.0 | 0.00 | 0.00 | 0.00 | 60 | 1016.8 |
| 20260508121008 | 53 | 265 | 6.0 | 16.0 | 0.00 | 0.00 | 0.00 | 60 | 1016.8 |
| 20260508120507 | 53 | 191 | 7.0 | 13.0 | 0.00 | 0.00 | 0.00 | 60 | 1016.8 |
| 20260508120009 | 52 | 246 | 6.0 | 14.0 | 0.00 | 0.00 | 0.00 | 60 | 1016.8 |
| 20260508115508 | 52 | 263 | 7.0 | 12.0 | 0.00 | 0.00 | 0.00 | 60 | 1016.7 |
| 20260508115007 | 52 | 263 | 6.0 | 12.0 | 0.00 | 0.00 | 0.00 | 60 | 1016.7 |
| 20260508114507 | 52 | 236 | 4.0 | 16.0 | 0.00 | 0.00 | 0.00 | 61 | 1016.7 |
| 20260508114006 | 50 | 300 | 3.0 | 16.0 | 0.00 | 0.00 | 0.00 | 63 | 1016.7 |
| 20260508113506 | 49 | 304 | 4.0 | 13.0 | 0.00 | 0.00 | 0.00 | 63 | 1016.7 |
| 20260508113010 | 48 | 191 | 2.0 | 9.0 | 0.00 | 0.00 | 0.00 | 60 | 1016.7 |
| 20260508112503 | 49 | 267 | 3.0 | 9.0 | 0.00 | 0.00 | 0.00 | 62 | 1016.6 |
| 20260508112003 | 48 | 191 | 1.0 | 8.0 | 0.00 | 0.00 | 0.00 | 62 | 1016.5 |
| 20260508111503 | 48 | 254 | 1.0 | 9.0 | 0.00 | 0.00 | 0.00 | 59 | 1016.5 |
| 20260508111005 | 48 | 191 | 1.0 | 9.0 | 0.00 | 0.00 | 0.00 | 59 | 1016.5 |
| 20260508110501 | 48 | 47 | 1.0 | 7.0 | 0.00 | 0.00 | 0.00 | 58 | 1016.5 |
| 20260508110006 | 47 | 63 | 1.0 | 4.0 | 0.00 | 0.00 | 0.00 | 59 | 1016.4 |
| 20260508105501 | 47 | 360 | 1.0 | 4.0 | 0.00 | 0.00 | 0.00 | 58 | 1016.3 |
| 20260508105001 | 47 | 9 | 1.0 | 6.0 | 0.00 | 0.00 | 0.00 | 59 | 1016.3 |
| 20260508104501 | 47 | 11 | 1.0 | 6.0 | 0.00 | 0.00 | 0.00 | 59 | 1016.4 |
| 20260508104100 | 47 | 44 | 2.0 | 6.0 | 0.00 | 0.00 | 0.00 | 58 | 1016.4 |
| 20260508103602 | 48 | 3 | 2.0 | 7.0 | 0.00 | 0.00 | 0.00 | 58 | 1016.4 |
| 20260508103100 | 47 | 37 | 1.0 | 7.0 | 0.00 | 0.00 | 0.00 | 57 | 1016.3 |
| 20260508102600 | 47 | 6 | 1.0 | 5.0 | 0.00 | 0.00 | 0.00 | 58 | 1016.4 |
| 20260508102059 | 47 | 5 | 1.0 | 7.0 | 0.00 | 0.00 | 0.00 | 58 | 1016.4 |
| 20260508101600 | 47 | 11 | 2.0 | 7.0 | 0.00 | 0.00 | 0.00 | 57 | 1016.4 |
| 20260508101058 | 47 | 40 | 2.0 | 6.0 | 0.00 | 0.00 | 0.00 | 57 | 1016.3 |
| 20260508100600 | 47 | 91 | 1.0 | 6.0 | 0.00 | 0.00 | 0.00 | 58 | 1016.4 |
| 20260508100059 | 47 | 33 | 1.0 | 4.0 | 0.00 | 0.00 | 0.00 | 57 | 1016.4 |
| 20260508095557 | 47 | 2 | 1.0 | 7.0 | 0.00 | 0.00 | 0.00 | 59 | 1016.3 |
| 20260508095056 | 47 | 353 | 2.0 | 7.0 | 0.00 | 0.00 | 0.00 | 59 | 1016.3 |
| 20260508094615 | 47 | 2 | 2.0 | 7.0 | 0.00 | 0.00 | 0.00 | 58 | 1016.3 |
| 20260508094055 | 47 | 19 | 1.0 | 6.0 | 0.00 | 0.00 | 0.00 | 59 | 1016.4 |
| 20260508093554 | 47 | 6 | 1.0 | 5.0 | 0.00 | 0.00 | 0.00 | 59 | 1016.3 |
| 20260508093053 | 47 | 13 | 2.0 | 5.0 | 0.00 | 0.00 | 0.00 | 58 | 1016.3 |
| 20260508092553 | 47 | 33 | 1.0 | 4.0 | 0.00 | 0.00 | 0.00 | 57 | 1016.2 |
| 20260508092052 | 48 | 33 | 1.0 | 6.0 | 0.00 | 0.00 | 0.00 | 55 | 1016.2 |
| 20260508091551 | 48 | 358 | 0.0 | 6.0 | 0.00 | 0.00 | 0.00 | 56 | 1016.2 |
| 20260508091051 | 48 | 19 | 1.0 | 4.0 | 0.00 | 0.00 | 0.00 | 56 | 1016.1 |
| 20260508090549 | 48 | 5 | 1.0 | 4.0 | 0.00 | 0.00 | 0.00 | 57 | 1016.2 |
| 20260508090052 | 48 | 7 | 1.0 | 4.0 | 0.00 | 0.00 | 0.00 | 57 | 1016.1 |